Regional Weather Roundup
Issued by NWS Charleston, WV

Home | Current Version | Previous Version | Graphics & Text | Print | Product List | Glossary On
Versions: 1 2 3 4 5 6 7 8 9 10 11 12 13 14 15 16 17 18 19 20 21 22 23 24 25 26 27 28 29 30 31 32 33 34 35 36 37 38 39 40 41 42 43 44 45 46 47 48 49 50
000
ASUS41 KRLX 120610
RWRRLX
West Virginia Regional Weather Roundup
National Weather Service Charleston WV
100 AM EST FRI FEB 12 2016

Note: "fair" indicates few or no clouds below 12,000 feet with no
significant weather and/or obstructions to visibility.

WVZ003-120700-
Northern Panhandle of West Virginia

CITY           SKY/WX    TMP DP  RH WIND       PRES   REMARKS
WHEELING         N/A      9   3  77 S6        30.23F WCI  -1
$$

WVZ009-120700-
Northwest West Virginia

CITY           SKY/WX    TMP DP  RH WIND       PRES   REMARKS
PARKERSBURG      N/A      7   3  84 CALM      30.30F
$$

WVZ006-120700-
Western West Virginia

CITY           SKY/WX    TMP DP  RH WIND       PRES   REMARKS
HUNTINGTON       N/A     18   4  54 E5        30.27F
$$

WVZ015-120700-
West Central West Virginia

CITY           SKY/WX    TMP DP  RH WIND       PRES   REMARKS
CHARLESTON       N/A     15   8  73 CALM      30.27F
$$

WVZ022-031-120700-
North Central West Virginia

CITY           SKY/WX    TMP DP  RH WIND       PRES   REMARKS
CLARKSBURG       N/A      4   1  88 CALM      30.25F
MORGANTOWN       N/A      4  -2  76 S5        30.25F WCI  -5
$$

WVZ025-035-042-045-120700-
Southern West Virginia

CITY           SKY/WX    TMP DP  RH WIND       PRES   REMARKS
BECKLEY        MOCLDY    14   4  64 CALM      30.14F
LOGAN            N/A     18   7  62 CALM      30.20F
BLUEFIELD      CLOUDY    16   5  62 CALM      30.12F
LEWISBURG      MOCLDY    12   6  76 CALM      30.16F
$$

WVZ047-120700-
Northern Mountains of West Virginia

CITY           SKY/WX    TMP DP  RH WIND       PRES   REMARKS
ELKINS           N/A      1  -4  79 CALM      30.20F
$$

WVZ052-120700-
Eastern Panhandle of West Virginia

CITY           SKY/WX    TMP DP  RH WIND       PRES   REMARKS
MARTINSBURG      N/A     17   0  47 W5        30.30R WCI  10
PETERSBURG       N/A     15   5  65 CALM      30.28S
$$



USA.gov is the U.S. government's official web portal to all federal, state and local government web resources and services.